******** Week 362 almanac for PRN-1 ******** ID: 1 Health: 0 Eccentricity: 0.001623630524 Time of Applicability(s): 233472 Orbital Inclination(rad): 0.9581531623 Rate of Right Ascen(r/s): -7.748894201e-09 SQRT(A) (m 1/2): 5153.577637 Right Ascen at Week(rad): 2.88617624 Argument of Perigee(rad): 0.1092350865 Mean Anom(rad): 1.109705521 Af0(s): 0.0002494661987 Af1(s/s): -7.275958e-12 week: 362 ******** Week 362 almanac for PRN-2 ******** ID: 2 Health: 0 Eccentricity: 0.01687383652 Time of Applicability(s): 233472 Orbital Inclination(rad): 0.9633183632 Rate of Right Ascen(r/s): -7.703178011e-09 SQRT(A) (m 1/2): 5153.541992 Right Ascen at Week(rad): 2.723781004 Argument of Perigee(rad): -0.8030966169 Mean Anom(rad): 2.5907812 Af0(s): 4.748148193e-05 Af1(s/s): 7.275958e-12 week: 362 ******** Week 362 almanac for PRN-3 ******** ID: 3 Health: 0 Eccentricity: 0.006552696228 Time of Applicability(s): 233472 Orbital Inclination(rad): 0.9935485705 Rate of Right Ascen(r/s): -7.714607058e-09 SQRT(A) (m 1/2): 5153.574707 Right Ascen at Week(rad): -2.409912281 Argument of Perigee(rad): 1.203443507 Mean Anom(rad): -0.9996562562 Af0(s): 0.0004243186401 Af1(s/s): -1.455192e-11 week: 362 ******** Week 362 almanac for PRN-4 ******** ID: 4 Health: 0 Eccentricity: 0.003731250763 Time of Applicability(s): 233472 Orbital Inclination(rad): 0.9704310007 Rate of Right Ascen(r/s): -8.206056101e-09 SQRT(A) (m 1/2): 5153.669922 Right Ascen at Week(rad): -1.339385813 Argument of Perigee(rad): -2.873259493 Mean Anom(rad): 1.967995486 Af0(s): 3.919106445e-05 Af1(s/s): 3.637979e-12 week: 362 ******** Week 362 almanac for PRN-5 ******** ID: 5 Health: 0 Eccentricity: 0.005428314209 Time of Applicability(s): 233472 Orbital Inclination(rad): 0.9801202465 Rate of Right Ascen(r/s): -7.840326581e-09 SQRT(A) (m 1/2): 5153.666016 Right Ascen at Week(rad): -2.469838649 Argument of Perigee(rad): 1.417672762 Mean Anom(rad): 2.638289289 Af0(s): -0.0001823891846 Af1(s/s): 0 week: 362 ******** Week 362 almanac for PRN-6 ******** ID: 6 Health: 0 Eccentricity: 0.003840923309 Time of Applicability(s): 233472 Orbital Inclination(rad): 0.9869991916 Rate of Right Ascen(r/s): -7.497455156e-09 SQRT(A) (m 1/2): 5153.605957 Right Ascen at Week(rad): 2.837139039 Argument of Perigee(rad): -0.5544677673 Mean Anom(rad): 0.307371775 Af0(s): -0.0004838589111 Af1(s/s): 0 week: 362 ******** Week 362 almanac for PRN-7 ******** ID: 7 Health: 0 Eccentricity: 0.02057981491 Time of Applicability(s): 233472 Orbital Inclination(rad): 0.9513221541 Rate of Right Ascen(r/s): -7.817468486e-09 SQRT(A) (m 1/2): 5153.575684 Right Ascen at Week(rad): -0.3306810925 Argument of Perigee(rad): -1.987561231 Mean Anom(rad): -0.5466244666 Af0(s): -0.0001281246338 Af1(s/s): -3.637979e-12 week: 362 ******** Week 362 almanac for PRN-8 ******** ID: 8 Health: 0 Eccentricity: 0.01159000397 Time of Applicability(s): 233472 Orbital Inclination(rad): 0.9429751414 Rate of Right Ascen(r/s): -8.457495146e-09 SQRT(A) (m 1/2): 5153.626953 Right Ascen at Week(rad): 1.716158234 Argument of Perigee(rad): 0.5294327215 Mean Anom(rad): 2.273948254 Af0(s): 0.0003768371582 Af1(s/s): -7.275958e-12 week: 362 ******** Week 362 almanac for PRN-9 ******** ID: 9 Health: 0 Eccentricity: 0.003342628479 Time of Applicability(s): 233472 Orbital Inclination(rad): 0.9646066674 Rate of Right Ascen(r/s): -8.286059433e-09 SQRT(A) (m 1/2): 5153.710449 Right Ascen at Week(rad): -1.403759826 Argument of Perigee(rad): 2.065099166 Mean Anom(rad): 2.866364818 Af0(s): 0.0006052004761 Af1(s/s): -3.637979e-12 week: 362 ******** Week 362 almanac for PRN-10 ******** ID: 10 Health: 0 Eccentricity: 0.01092386246 Time of Applicability(s): 233472 Orbital Inclination(rad): 0.9930811857 Rate of Right Ascen(r/s): -7.714607058e-09 SQRT(A) (m 1/2): 5153.60498 Right Ascen at Week(rad): -2.412422227 Argument of Perigee(rad): -2.255926226 Mean Anom(rad): -1.991445618 Af0(s): -0.0004665244019 Af1(s/s): 0 week: 362 ******** Week 362 almanac for PRN-11 ******** ID: 11 Health: 0 Eccentricity: 0.00221157074 Time of Applicability(s): 233472 Orbital Inclination(rad): 0.9638756296 Rate of Right Ascen(r/s): -7.703178011e-09 SQRT(A) (m 1/2): 5153.538086 Right Ascen at Week(rad): 2.855596618 Argument of Perigee(rad): -2.308335114 Mean Anom(rad): 1.416710654 Af0(s): -0.0003195579102 Af1(s/s): 1.455192e-11 week: 362 ******** Week 362 almanac for PRN-12 ******** ID: 12 Health: 0 Eccentricity: 0.008995056152 Time of Applicability(s): 233472 Orbital Inclination(rad): 0.9592137662 Rate of Right Ascen(r/s): -8.011762293e-09 SQRT(A) (m 1/2): 5153.712402 Right Ascen at Week(rad): 0.7868010671 Argument of Perigee(rad): 1.565497802 Mean Anom(rad): -1.222013063 Af0(s): -0.0004800905395 Af1(s/s): 0 week: 362 ******** Week 362 almanac for PRN-13 ******** ID: 13 Health: 0 Eccentricity: 0.01002979279 Time of Applicability(s): 233472 Orbital Inclination(rad): 0.9760695785 Rate of Right Ascen(r/s): -8.126052768e-09 SQRT(A) (m 1/2): 5153.617676 Right Ascen at Week(rad): -1.228391292 Argument of Perigee(rad): 0.9956318037 Mean Anom(rad): 2.033690011 Af0(s): 0.0005396308105 Af1(s/s): 0 week: 362 ******** Week 362 almanac for PRN-14 ******** ID: 14 Health: 0 Eccentricity: 0.006801128387 Time of Applicability(s): 233472 Orbital Inclination(rad): 0.9425976383 Rate of Right Ascen(r/s): -8.137481816e-09 SQRT(A) (m 1/2): 5153.599121 Right Ascen at Week(rad): 0.7319245522 Argument of Perigee(rad): -2.74441372 Mean Anom(rad): -1.368012007 Af0(s): 0.0005848512695 Af1(s/s): 0 week: 362 ******** Week 362 almanac for PRN-15 ******** ID: 15 Health: 0 Eccentricity: 0.01662302017 Time of Applicability(s): 233472 Orbital Inclination(rad): 0.9425017645 Rate of Right Ascen(r/s): -8.57178562e-09 SQRT(A) (m 1/2): 5153.637207 Right Ascen at Week(rad): -1.548230032 Argument of Perigee(rad): 1.504637414 Mean Anom(rad): 1.278279748 Af0(s): 0.000312021167 Af1(s/s): 3.637979e-12 week: 362 ******** Week 362 almanac for PRN-16 ******** ID: 16 Health: 0 Eccentricity: 0.01502990723 Time of Applicability(s): 233472 Orbital Inclination(rad): 0.9583209414 Rate of Right Ascen(r/s): -8.068907531e-09 SQRT(A) (m 1/2): 5153.601074 Right Ascen at Week(rad): 0.8037508807 Argument of Perigee(rad): 0.9315757471 Mean Anom(rad): -2.975432126 Af0(s): 0.0001801281616 Af1(s/s): 7.275958e-12 week: 362 ******** Week 362 almanac for PRN-17 ******** ID: 17 Health: 0 Eccentricity: 0.01263284683 Time of Applicability(s): 233472 Orbital Inclination(rad): 0.9586624918 Rate of Right Ascen(r/s): -8.263201338e-09 SQRT(A) (m 1/2): 5153.538086 Right Ascen at Week(rad): 1.821142292 Argument of Perigee(rad): -1.119361061 Mean Anom(rad): 2.215841241 Af0(s): -7.084538574e-05 Af1(s/s): -1.091394e-11 week: 362 ******** Week 362 almanac for PRN-18 ******** ID: 18 Health: 0 Eccentricity: 0.005781650543 Time of Applicability(s): 233472 Orbital Inclination(rad): 0.9719589893 Rate of Right Ascen(r/s): -7.634603726e-09 SQRT(A) (m 1/2): 5153.59375 Right Ascen at Week(rad): 2.831897064 Argument of Perigee(rad): -2.866497019 Mean Anom(rad): 0.2299596742 Af0(s): -0.0003157895386 Af1(s/s): 1.091394e-11 week: 362 ******** Week 362 almanac for PRN-19 ******** ID: 19 Health: 0 Eccentricity: 0.01118850708 Time of Applicability(s): 233472 Orbital Inclination(rad): 0.9578475645 Rate of Right Ascen(r/s): -8.251772291e-09 SQRT(A) (m 1/2): 5153.661621 Right Ascen at Week(rad): 1.865041631 Argument of Perigee(rad): 2.937594182 Mean Anom(rad): -2.268619393 Af0(s): 0.0005486749023 Af1(s/s): 0 week: 362 ******** Week 362 almanac for PRN-20 ******** ID: 20 Health: 0 Eccentricity: 0.002264976501 Time of Applicability(s): 233472 Orbital Inclination(rad): 0.960004725 Rate of Right Ascen(r/s): -8.343204671e-09 SQRT(A) (m 1/2): 5153.696777 Right Ascen at Week(rad): -1.398217497 Argument of Perigee(rad): -1.985390214 Mean Anom(rad): -1.24917456 Af0(s): 4.522045898e-05 Af1(s/s): 2.182787e-11 week: 362 ******** Week 362 almanac for PRN-21 ******** ID: 21 Health: 0 Eccentricity: 0.0007758140564 Time of Applicability(s): 233472 Orbital Inclination(rad): 0.9629468522 Rate of Right Ascen(r/s): -8.057478483e-09 SQRT(A) (m 1/2): 5153.720703 Right Ascen at Week(rad): -2.404114163 Argument of Perigee(rad): -0.2819292655 Mean Anom(rad): -1.555134444 Af0(s): 0.0003233262817 Af1(s/s): 3.637979e-12 week: 362 ******** Week 362 almanac for PRN-22 ******** ID: 22 Health: 0 Eccentricity: 0.01206064224 Time of Applicability(s): 233472 Orbital Inclination(rad): 0.9577636749 Rate of Right Ascen(r/s): -8.057478483e-09 SQRT(A) (m 1/2): 5153.569824 Right Ascen at Week(rad): 0.8071057146 Argument of Perigee(rad): -0.9936843672 Mean Anom(rad): 2.863500588 Af0(s): -2.562492676e-05 Af1(s/s): 7.275958e-12 week: 362 ******** Week 362 almanac for PRN-23 ******** ID: 23 Health: 0 Eccentricity: 0.006049633026 Time of Applicability(s): 233472 Orbital Inclination(rad): 0.988083764 Rate of Right Ascen(r/s): -7.726036106e-09 SQRT(A) (m 1/2): 5153.660645 Right Ascen at Week(rad): -2.444572907 Argument of Perigee(rad): -2.740109136 Mean Anom(rad): -0.9120568152 Af0(s): 0.0004944103516 Af1(s/s): 3.637979e-12 week: 362 ******** Week 362 almanac for PRN-24 ******** ID: 24 Health: 0 Eccentricity: 0.01792860031 Time of Applicability(s): 233472 Orbital Inclination(rad): 0.935281269 Rate of Right Ascen(r/s): -8.011762293e-09 SQRT(A) (m 1/2): 5153.600098 Right Ascen at Week(rad): -0.4394120925 Argument of Perigee(rad): 1.137412675 Mean Anom(rad): 0.4351116283 Af0(s): -6.180129394e-05 Af1(s/s): 1.818989e-11 week: 362 ******** Week 362 almanac for PRN-25 ******** ID: 25 Health: 0 Eccentricity: 0.01291942596 Time of Applicability(s): 233472 Orbital Inclination(rad): 0.9476489891 Rate of Right Ascen(r/s): -8.068907531e-09 SQRT(A) (m 1/2): 5153.665039 Right Ascen at Week(rad): 0.6928117871 Argument of Perigee(rad): 1.159348675 Mean Anom(rad): -1.348175867 Af0(s): 0.0003451828369 Af1(s/s): -3.637979e-12 week: 362 ******** Week 362 almanac for PRN-26 ******** ID: 26 Health: 0 Eccentricity: 0.01100492477 Time of Applicability(s): 233472 Orbital Inclination(rad): 0.9284742293 Rate of Right Ascen(r/s): -8.240343243e-09 SQRT(A) (m 1/2): 5153.668945 Right Ascen at Week(rad): 0.6180070043 Argument of Perigee(rad): 0.7114131767 Mean Anom(rad): -2.168435392 Af0(s): -0.0002698154053 Af1(s/s): -3.637979e-12 week: 362 ******** Week 362 almanac for PRN-27 ******** ID: 27 Health: 0 Eccentricity: 0.01437950134 Time of Applicability(s): 233472 Orbital Inclination(rad): 0.9520831523 Rate of Right Ascen(r/s): -8.343204671e-09 SQRT(A) (m 1/2): 5153.604004 Right Ascen at Week(rad): 1.748332508 Argument of Perigee(rad): 0.8860454296 Mean Anom(rad): 2.377641011 Af0(s): -5.652557373e-05 Af1(s/s): -1.455192e-11 week: 362 ******** Week 362 almanac for PRN-28 ******** ID: 28 Health: 0 Eccentricity: 0.0004296302795 Time of Applicability(s): 233472 Orbital Inclination(rad): 0.9622517672 Rate of Right Ascen(r/s): -7.737465153e-09 SQRT(A) (m 1/2): 5153.762695 Right Ascen at Week(rad): -0.3562528069 Argument of Perigee(rad): -0.08988992598 Mean Anom(rad): -0.1390664439 Af0(s): -0.0004552192871 Af1(s/s): 7.275958e-12 week: 362 ******** Week 362 almanac for PRN-29 ******** ID: 29 Health: 0 Eccentricity: 0.00341129303 Time of Applicability(s): 233472 Orbital Inclination(rad): 0.9613169976 Rate of Right Ascen(r/s): -8.217485148e-09 SQRT(A) (m 1/2): 5153.69043 Right Ascen at Week(rad): 1.837916836 Argument of Perigee(rad): 2.743324279 Mean Anom(rad): 2.235286021 Af0(s): -0.0002826278686 Af1(s/s): 7.275958e-12 week: 362 ******** Week 362 almanac for PRN-30 ******** ID: 30 Health: 0 Eccentricity: 0.008120059967 Time of Applicability(s): 233472 Orbital Inclination(rad): 0.9365935416 Rate of Right Ascen(r/s): -7.977475151e-09 SQRT(A) (m 1/2): 5153.705078 Right Ascen at Week(rad): -0.3398924673 Argument of Perigee(rad): -2.309286362 Mean Anom(rad): -0.7339963251 Af0(s): 0.0001228489136 Af1(s/s): 1.455192e-11 week: 362 ******** Week 362 almanac for PRN-31 ******** ID: 31 Health: 0 Eccentricity: 0.01084041595 Time of Applicability(s): 233472 Orbital Inclination(rad): 0.955103177 Rate of Right Ascen(r/s): -7.771752296e-09 SQRT(A) (m 1/2): 5153.53418 Right Ascen at Week(rad): -0.3064074194 Argument of Perigee(rad): 0.9382209998 Mean Anom(rad): -1.637502396 Af0(s): -0.0001273709595 Af1(s/s): 3.637979e-12 week: 362 ******** Week 362 almanac for PRN-32 ******** ID: 32 Health: 0 Eccentricity: 0.009377479553 Time of Applicability(s): 233472 Orbital Inclination(rad): 0.9676446684 Rate of Right Ascen(r/s): -8.228914196e-09 SQRT(A) (m 1/2): 5153.680664 Right Ascen at Week(rad): -1.38670178 Argument of Perigee(rad): -1.992259796 Mean Anom(rad): 2.945049119 Af0(s): -3.466901855e-05 Af1(s/s): 1.818989e-11 week: 362